| time (UTC) | temp F | wind direction | speed knots | gust knots | rain 1hr in | rain 24hr in | rain mn in | humidity % | barometer mb |
| 20260502164030 | 42 | 352 | 2.6 | 8.7 | 0.00 | 0.00 | 0.00 | 79 | 1019.2 |
| 20260502163527 | 42 | 28 | 4.3 | 7.8 | 0.00 | 0.00 | 0.00 | 78 | 1019.2 |
| 20260502163046 | 42 | 71 | 3.5 | 8.7 | 0.00 | 0.00 | 0.00 | 77 | 1019.1 |
| 20260502162532 | 43 | 35 | 4.3 | 10.4 | 0.00 | 0.00 | 0.00 | 76 | 1019.1 |
| 20260502162029 | 43 | 11 | 4.3 | 10.4 | 0.00 | 0.00 | 0.00 | 78 | 1019.2 |
| 20260502161550 | 43 | 38 | 3.5 | 7.8 | 0.00 | 0.00 | 0.00 | 79 | 1019.3 |
| 20260502161029 | 43 | 15 | 1.7 | 6.1 | 0.00 | 0.00 | 0.00 | 81 | 1019.3 |
| 20260502160530 | 42 | 316 | 1.7 | 6.1 | 0.00 | 0.00 | 0.00 | 85 | 1019.3 |
| 20260502152027 | 39 | 41 | 3.5 | 8.7 | 0.00 | 0.00 | 0.00 | 89 | 1019.3 |
| 20260502151547 | 39 | 19 | 3.5 | 8.7 | 0.00 | 0.00 | 0.00 | 89 | 1019.3 |
| 20260502151027 | 39 | 26 | 3.5 | 7.8 | 0.00 | 0.00 | 0.00 | 90 | 1019.3 |
| 20260502150527 | 38 | 346 | 3.5 | 7.8 | 0.00 | 0.00 | 0.00 | 90 | 1019.3 |
| 20260502130532 | 36 | 25 | 7.0 | 11.3 | 0.00 | 0.00 | 0.00 | 93 | 1018.3 |
| 20260502123527 | 36 | 14 | 6.1 | 9.6 | 0.00 | 0.00 | 0.00 | 93 | 1018.3 |
| 20260502123048 | 36 | 345 | 5.2 | 9.6 | 0.00 | 0.00 | 0.00 | 93 | 1018.2 |
| 20260502122527 | 36 | 321 | 3.5 | 9.6 | 0.00 | 0.00 | 0.00 | 93 | 1018.3 |
| 20260502122028 | 36 | 329 | 4.3 | 7.8 | 0.00 | 0.00 | 0.00 | 93 | 1018.3 |
| 20260502121541 | 35 | 342 | 4.3 | 11.3 | 0.00 | 0.00 | 0.00 | 93 | 1018.3 |
| 20260502121028 | 35 | 338 | 7.8 | 12.2 | 0.00 | 0.00 | 0.00 | 93 | 1018.2 |
| 20260502120529 | 35 | 18 | 7.0 | 12.2 | 0.00 | 0.00 | 0.00 | 93 | 1018.0 |
| 20260502115527 | 35 | 12 | 6.1 | 12.2 | 0.00 | 0.00 | 0.00 | 92 | 1018.1 |
| 20260502115027 | 35 | 348 | 4.3 | 9.6 | 0.00 | 0.00 | 0.00 | 92 | 1018.0 |
| 20260502114615 | 35 | 355 | 4.3 | 11.3 | 0.00 | 0.00 | 0.00 | 92 | 1017.9 |
| 20260502114029 | 36 | 331 | 5.2 | 11.3 | 0.00 | 0.00 | 0.00 | 92 | 1017.9 |
| 20260502113529 | 36 | 344 | 5.2 | 10.4 | 0.00 | 0.00 | 0.00 | 92 | 1017.8 |
| 20260502113045 | 36 | 327 | 4.3 | 8.7 | 0.00 | 0.00 | 0.00 | 92 | 1017.6 |
| 20260502112527 | 36 | 304 | 2.6 | 9.6 | 0.00 | 0.00 | 0.00 | 92 | 1017.6 |
| 20260502112030 | 36 | 282 | 3.5 | 10.4 | 0.00 | 0.00 | 0.00 | 92 | 1017.6 |
| 20260502111542 | 37 | 310 | 5.2 | 10.4 | 0.00 | 0.00 | 0.00 | 92 | 1017.6 |
| 20260502111028 | 37 | 293 | 6.1 | 10.4 | 0.00 | 0.00 | 0.00 | 92 | 1017.4 |
| 20260502110528 | 37 | 287 | 3.5 | 6.1 | 0.00 | 0.00 | 0.00 | 92 | 1017.5 |
| 20260502110044 | 37 | 294 | 2.6 | 6.1 | 0.00 | 0.00 | 0.00 | 92 | 1017.6 |
| 20260502105527 | 37 | 276 | 2.6 | 7.8 | 0.00 | 0.00 | 0.00 | 92 | 1017.6 |
| 20260502105027 | 37 | 271 | 2.6 | 8.7 | 0.00 | 0.00 | 0.00 | 92 | 1017.6 |
| 20260502104542 | 37 | 301 | 4.3 | 8.7 | 0.00 | 0.00 | 0.00 | 92 | 1017.4 |
| 20260502104028 | 37 | 290 | 4.3 | 7.8 | 0.00 | 0.00 | 0.00 | 92 | 1017.4 |
| 20260502103527 | 37 | 287 | 4.3 | 7.8 | 0.00 | 0.00 | 0.00 | 92 | 1017.3 |
| 20260502103040 | 37 | 282 | 5.2 | 8.7 | 0.00 | 0.00 | 0.00 | 93 | 1017.3 |
| 20260502102527 | 37 | 281 | 3.5 | 8.7 | 0.00 | 0.00 | 0.00 | 93 | 1017.3 |
| 20260502102027 | 38 | 289 | 5.2 | 8.7 | 0.00 | 0.00 | 0.00 | 93 | 1017.3 |
| 20260502101548 | 38 | 292 | 5.2 | 8.7 | 0.00 | 0.00 | 0.00 | 93 | 1017.2 |
| 20260502101028 | 38 | 284 | 3.5 | 6.1 | 0.00 | 0.00 | 0.00 | 93 | 1017.2 |
| 20260502100528 | 38 | 246 | 0.9 | 6.1 | 0.00 | 0.00 | 0.00 | 93 | 1017.2 |
| 20260502091029 | 38 | 284 | 0.9 | 3.5 | 0.00 | 0.00 | 0.00 | 93 | 1016.9 |
| 20260502090528 | 38 | 284 | 1.7 | 3.5 | 0.00 | 0.00 | 0.00 | 93 | 1017.0 |
| 20260502071028 | 38 | 0 | 0.0 | 0.9 | 0.00 | 0.00 | 0.00 | 92 | 1016.8 |
| 20260502070528 | 38 | 0 | 0.0 | 1.7 | 0.00 | 0.00 | 0.00 | 92 | 1016.8 |
| 20260502070047 | 38 | 0 | 0.0 | 1.7 | 0.00 | 0.00 | 0.00 | 92 | 1016.9 |
| 20260502065529 | 38 | 0 | 0.0 | 4.3 | 0.00 | 0.00 | 0.00 | 92 | 1016.9 |
| 20260502065027 | 38 | 0 | 0.0 | 6.1 | 0.00 | 0.00 | 0.00 | 92 | 1017.0 |
| 20260502064611 | 38 | 200 | 2.6 | 6.1 | 0.00 | 0.00 | 0.00 | 92 | 1016.9 |
| 20260502064028 | 38 | 178 | 2.6 | 5.2 | 0.00 | 0.00 | 0.00 | 92 | 1017.0 |
| 20260502063527 | 38 | 260 | 0.9 | 7.8 | 0.00 | 0.00 | 0.00 | 91 | 1017.1 |
| 20260502063052 | 38 | 261 | 2.6 | 7.8 | 0.00 | 0.00 | 0.00 | 91 | 1017.2 |
| 20260502062527 | 40 | 299 | 3.5 | 7.8 | 0.00 | 0.00 | 0.00 | 92 | 1017.1 |
| 20260502062027 | 40 | 229 | 1.7 | 3.5 | 0.00 | 0.00 | 0.00 | 93 | 1017.2 |
| 20260502061545 | 40 | 167 | 1.7 | 3.5 | 0.00 | 0.00 | 0.00 | 93 | 1017.1 |
| 20260502061028 | 40 | 167 | 0.9 | 3.5 | 0.00 | 0.00 | 0.00 | 93 | 1017.1 |
| 20260502060527 | 40 | 167 | 0.0 | 2.6 | 0.00 | 0.00 | 0.00 | 93 | 1017.1 |
| 20260502060048 | 40 | 0 | 0.0 | 2.6 | 0.00 | 0.00 | 0.00 | 93 | 1017.2 |
| 20260502055528 | 40 | 167 | 0.0 | 2.6 | 0.00 | 0.00 | 0.00 | 93 | 1017.1 |
| 20260502055028 | 40 | 0 | 0.0 | 1.7 | 0.00 | 0.00 | 0.00 | 93 | 1017.3 |
| 20260502054542 | 40 | 0 | 0.0 | 3.5 | 0.00 | 0.00 | 0.00 | 93 | 1017.4 |
| 20260502054027 | 40 | 0 | 0.9 | 3.5 | 0.00 | 0.00 | 0.00 | 93 | 1017.4 |
| 20260502053527 | 40 | 167 | 1.7 | 4.3 | 0.00 | 0.00 | 0.00 | 93 | 1017.3 |
| 20260502053045 | 40 | 167 | 2.6 | 4.3 | 0.00 | 0.00 | 0.00 | 93 | 1017.4 |
| 20260502052527 | 39 | 167 | 2.6 | 3.5 | 0.00 | 0.00 | 0.00 | 92 | 1017.3 |
| 20260502052028 | 39 | 167 | 1.7 | 3.5 | 0.00 | 0.00 | 0.00 | 92 | 1017.5 |
| 20260502051542 | 39 | 167 | 2.6 | 3.5 | 0.00 | 0.00 | 0.00 | 92 | 1017.6 |
| 20260502051028 | 39 | 167 | 0.0 | 3.5 | 0.00 | 0.00 | 0.00 | 92 | 1017.6 |
| 20260502050527 | 39 | 167 | 1.7 | 5.2 | 0.00 | 0.00 | 0.00 | 92 | 1017.7 |
| 20260502050045 | 39 | 167 | 1.7 | 5.2 | 0.00 | 0.00 | 0.00 | 92 | 1017.7 |
| 20260502045527 | 39 | 167 | 3.5 | 5.2 | 0.00 | 0.00 | 0.00 | 92 | 1017.7 |
| 20260502045027 | 39 | 157 | 1.7 | 4.3 | 0.00 | 0.00 | 0.00 | 92 | 1017.6 |
| 20260502044542 | 39 | 150 | 1.7 | 4.3 | 0.00 | 0.00 | 0.00 | 92 | 1017.6 |
| 20260502044027 | 39 | 148 | 1.7 | 3.5 | 0.00 | 0.00 | 0.00 | 91 | 1017.7 |
| 20260502043529 | 39 | 138 | 0.9 | 3.5 | 0.00 | 0.00 | 0.00 | 91 | 1017.6 |
| 20260502043112 | 39 | 138 | 0.9 | 3.5 | 0.00 | 0.00 | 0.00 | 91 | 1017.7 |
| 20260502042528 | 39 | 138 | 1.7 | 3.5 | 0.00 | 0.00 | 0.00 | 91 | 1017.7 |
| 20260502042028 | 39 | 80 | 1.7 | 3.5 | 0.00 | 0.00 | 0.00 | 91 | 1017.8 |
| 20260502041551 | 39 | 54 | 0.9 | 2.6 | 0.00 | 0.00 | 0.00 | 91 | 1017.7 |
| 20260502041027 | 39 | 54 | 0.0 | 2.6 | 0.00 | 0.00 | 0.00 | 91 | 1017.7 |
| 20260502040531 | 40 | 54 | 0.9 | 2.6 | 0.00 | 0.00 | 0.00 | 91 | 1017.8 |
| 20260502040043 | 40 | 0 | 0.0 | 0.9 | 0.00 | 0.00 | 0.00 | 91 | 1018.0 |
| 20260502035527 | 40 | 0 | 0.0 | 2.6 | 0.00 | 0.00 | 0.00 | 91 | 1018.1 |
| 20260502035028 | 40 | 0 | 0.0 | 2.6 | 0.00 | 0.00 | 0.00 | 91 | 1018.0 |
| 20260502034538 | 40 | 0 | 0.0 | 2.6 | 0.00 | 0.00 | 0.00 | 91 | 1017.9 |
| 20260502034028 | 40 | 0 | 0.9 | 2.6 | 0.00 | 0.00 | 0.00 | 91 | 1017.9 |
| 20260502033527 | 40 | 0 | 0.9 | 4.3 | 0.00 | 0.00 | 0.00 | 91 | 1017.9 |
| 20260502033039 | 40 | 317 | 1.7 | 4.3 | 0.00 | 0.00 | 0.00 | 91 | 1017.8 |
| 20260502032528 | 40 | 348 | 1.7 | 8.7 | 0.00 | 0.00 | 0.00 | 90 | 1017.8 |
| 20260502032027 | 40 | 325 | 2.6 | 8.7 | 0.00 | 0.00 | 0.00 | 90 | 1017.8 |
| 20260502031543 | 40 | 309 | 4.3 | 16.5 | 0.00 | 0.00 | 0.00 | 90 | 1017.9 |
| 20260502031028 | 41 | 286 | 3.5 | 16.5 | 0.00 | 0.00 | 0.00 | 90 | 1017.8 |
| 20260502030528 | 41 | 279 | 3.5 | 7.8 | 0.00 | 0.00 | 0.00 | 92 | 1017.8 |
| 20260502030048 | 41 | 293 | 0.0 | 2.6 | 0.00 | 0.00 | 0.00 | 91 | 1017.4 |
| 20260502025528 | 41 | 293 | 0.0 | 2.6 | 0.00 | 0.00 | 0.00 | 92 | 1017.4 |
| 20260502025030 | 41 | 293 | 0.9 | 2.6 | 0.00 | 0.00 | 0.00 | 92 | 1017.2 |
| 20260502024541 | 41 | 293 | 0.9 | 2.6 | 0.00 | 0.00 | 0.00 | 92 | 1017.2 |
| 20260502024027 | 41 | 294 | 0.9 | 1.7 | 0.00 | 0.00 | 0.00 | 91 | 1017.2 |
| 20260502023527 | 41 | 294 | 0.9 | 1.7 | 0.00 | 0.00 | 0.00 | 91 | 1017.2 |
| 20260502023041 | 41 | 294 | 0.0 | 1.7 | 0.00 | 0.00 | 0.00 | 91 | 1017.2 |
| 20260502022528 | 41 | 294 | 0.9 | 1.7 | 0.00 | 0.00 | 0.00 | 91 | 1017.2 |
| 20260502022030 | 41 | 294 | 0.9 | 1.7 | 0.00 | 0.00 | 0.00 | 91 | 1017.2 |
| 20260502021543 | 40 | 0 | 0.0 | 0.9 | 0.00 | 0.00 | 0.00 | 91 | 1017.3 |
| 20260502021027 | 40 | 294 | 0.0 | 1.7 | 0.00 | 0.00 | 0.00 | 91 | 1017.3 |
| 20260502020530 | 40 | 294 | 0.0 | 1.7 | 0.00 | 0.00 | 0.00 | 90 | 1017.3 |
| 20260502020044 | 41 | 294 | 0.9 | 1.7 | 0.00 | 0.00 | 0.00 | 90 | 1017.1 |
| 20260502015527 | 41 | 294 | 0.9 | 1.7 | 0.00 | 0.00 | 0.00 | 90 | 1017.2 |
| 20260502015025 | 41 | 0 | 0.0 | 0.9 | 0.00 | 0.00 | 0.00 | 90 | 1017.2 |
| 20260502014543 | 41 | 294 | 0.0 | 0.9 | 0.00 | 0.00 | 0.00 | 90 | 1017.0 |
| 20260502014028 | 41 | 294 | 0.0 | 0.9 | 0.00 | 0.00 | 0.00 | 89 | 1016.9 |
| 20260502013527 | 41 | 0 | 0.0 | 0.9 | 0.00 | 0.00 | 0.00 | 89 | 1016.9 |
| 20260502013050 | 41 | 0 | 0.0 | 0.9 | 0.00 | 0.00 | 0.00 | 89 | 1017.0 |
| 20260502012527 | 41 | 294 | 0.0 | 0.9 | 0.00 | 0.00 | 0.00 | 89 | 1017.0 |
| 20260502012031 | 41 | 294 | 0.0 | 0.9 | 0.00 | 0.00 | 0.00 | 88 | 1016.9 |
| 20260502011542 | 41 | 0 | 0.0 | 1.7 | 0.00 | 0.00 | 0.00 | 88 | 1017.0 |
| 20260502011028 | 41 | 0 | 0.0 | 1.7 | 0.00 | 0.00 | 0.00 | 88 | 1017.0 |
| 20260502010527 | 42 | 294 | 0.0 | 1.7 | 0.00 | 0.00 | 0.00 | 88 | 1016.8 |
| 20260502010046 | 42 | 0 | 0.0 | 0.9 | 0.00 | 0.00 | 0.00 | 87 | 1016.8 |
| 20260502005527 | 42 | 294 | 0.0 | 0.9 | 0.00 | 0.00 | 0.00 | 86 | 1017.0 |
| 20260502005028 | 42 | 0 | 0.0 | 1.7 | 0.00 | 0.00 | 0.00 | 86 | 1016.8 |
| 20260502004545 | 42 | 0 | 0.0 | 1.7 | 0.00 | 0.00 | 0.00 | 85 | 1016.8 |
| 20260502004029 | 42 | 0 | 0.0 | 1.7 | 0.00 | 0.00 | 0.00 | 85 | 1016.9 |
| 20260502003528 | 42 | 0 | 0.0 | 0.9 | 0.00 | 0.00 | 0.00 | 85 | 1016.8 |
| 20260502003042 | 42 | 0 | 0.0 | 0.9 | 0.00 | 0.00 | 0.00 | 84 | 1016.7 |
| 20260502002527 | 42 | 294 | 0.0 | 0.9 | 0.00 | 0.00 | 0.00 | 84 | 1016.7 |
| 20260502002028 | 42 | 0 | 0.0 | 1.7 | 0.00 | 0.00 | 0.00 | 83 | 1016.5 |
| 20260502001541 | 42 | 0 | 0.0 | 2.6 | 0.00 | 0.00 | 0.00 | 83 | 1016.5 |
| 20260502001028 | 43 | 0 | 0.0 | 3.5 | 0.00 | 0.00 | 0.00 | 83 | 1016.3 |
| 20260502000528 | 43 | 294 | 1.7 | 3.5 | 0.00 | 0.00 | 0.00 | 82 | 1016.4 |
| 20260502000041 | 43 | 293 | 1.7 | 3.5 | 0.00 | 0.00 | 0.00 | 82 | 1016.3 |
| 20260501235528 | 43 | 336 | 0.9 | 2.6 | 0.00 | 0.00 | 0.00 | 81 | 1016.2 |
| 20260501235028 | 44 | 0 | 0.0 | 1.7 | 0.00 | 0.00 | 0.00 | 81 | 1016.2 |
| 20260501234542 | 44 | 336 | 0.9 | 1.7 | 0.00 | 0.00 | 0.00 | 81 | 1016.1 |
| 20260501234028 | 44 | 336 | 0.9 | 2.6 | 0.00 | 0.00 | 0.00 | 80 | 1016.1 |
| 20260501233528 | 44 | 336 | 0.9 | 2.6 | 0.00 | 0.00 | 0.00 | 80 | 1016.1 |
| 20260501233044 | 44 | 336 | 0.9 | 2.6 | 0.00 | 0.00 | 0.00 | 79 | 1015.9 |
| 20260501232528 | 45 | 344 | 0.9 | 2.6 | 0.00 | 0.00 | 0.00 | 79 | 1016.0 |
| 20260501232030 | 45 | 345 | 0.9 | 2.6 | 0.00 | 0.00 | 0.00 | 79 | 1016.1 |
| 20260501231543 | 45 | 0 | 0.0 | 2.6 | 0.00 | 0.00 | 0.00 | 79 | 1016.1 |
| 20260501231027 | 45 | 346 | 0.0 | 2.6 | 0.00 | 0.00 | 0.00 | 79 | 1016.2 |
| 20260501230528 | 45 | 0 | 0.0 | 4.3 | 0.00 | 0.00 | 0.00 | 78 | 1016.0 |
| 20260501230042 | 45 | 346 | 0.9 | 5.2 | 0.00 | 0.00 | 0.00 | 79 | 1016.0 |
| 20260501225528 | 45 | 344 | 1.7 | 5.2 | 0.00 | 0.00 | 0.00 | 79 | 1016.1 |
| 20260501225028 | 45 | 337 | 2.6 | 6.1 | 0.00 | 0.00 | 0.00 | 79 | 1016.2 |
| 20260501224542 | 45 | 327 | 2.6 | 6.1 | 0.00 | 0.00 | 0.00 | 79 | 1016.2 |
| 20260501224027 | 45 | 344 | 2.6 | 7.8 | 0.00 | 0.00 | 0.00 | 79 | 1016.2 |
| 20260501223527 | 45 | 333 | 3.5 | 7.8 | 0.00 | 0.00 | 0.00 | 79 | 1016.1 |
| 20260501223042 | 45 | 349 | 3.5 | 7.8 | 0.00 | 0.00 | 0.00 | 79 | 1016.0 |
| 20260501222529 | 45 | 340 | 3.5 | 8.7 | 0.00 | 0.00 | 0.00 | 79 | 1015.9 |
| 20260501222027 | 45 | 335 | 4.3 | 10.4 | 0.00 | 0.00 | 0.00 | 78 | 1015.9 |
| 20260501221545 | 45 | 340 | 6.1 | 10.4 | 0.00 | 0.00 | 0.00 | 79 | 1015.9 |
| 20260501221032 | 45 | 360 | 5.2 | 9.6 | 0.00 | 0.00 | 0.00 | 80 | 1015.9 |
| 20260501220528 | 45 | 5 | 4.3 | 8.7 | 0.00 | 0.00 | 0.00 | 81 | 1015.8 |
| 20260501220107 | 45 | 326 | 1.7 | 7.8 | 0.00 | 0.00 | 0.00 | 83 | 1015.9 |
| 20260501215527 | 44 | 346 | 4.3 | 8.7 | 0.00 | 0.00 | 0.00 | 80 | 1015.8 |
| 20260501215029 | 44 | 342 | 4.3 | 8.7 | 0.00 | 0.00 | 0.00 | 81 | 1015.9 |
| 20260501214544 | 44 | 345 | 2.6 | 5.2 | 0.00 | 0.00 | 0.00 | 81 | 1015.9 |
| 20260501214027 | 44 | 344 | 2.6 | 8.7 | 0.00 | 0.00 | 0.00 | 81 | 1015.8 |
| 20260501213527 | 44 | 9 | 3.5 | 8.7 | 0.00 | 0.00 | 0.00 | 80 | 1015.9 |
| 20260501213046 | 45 | 342 | 4.3 | 8.7 | 0.00 | 0.00 | 0.00 | 81 | 1015.7 |
| 20260501212527 | 45 | 30 | 2.6 | 9.6 | 0.00 | 0.00 | 0.00 | 82 | 1015.8 |
| 20260501212027 | 45 | 18 | 3.5 | 10.4 | 0.00 | 0.00 | 0.00 | 81 | 1015.8 |
| 20260501211544 | 45 | 360 | 6.1 | 10.4 | 0.00 | 0.00 | 0.00 | 81 | 1015.7 |
| 20260501211028 | 45 | 9 | 6.1 | 11.3 | 0.00 | 0.00 | 0.00 | 81 | 1015.6 |
| 20260501210529 | 44 | 5 | 7.0 | 11.3 | 0.00 | 0.00 | 0.00 | 80 | 1015.3 |
| 20260501210040 | 45 | 360 | 7.0 | 10.4 | 0.00 | 0.00 | 0.00 | 81 | 1015.3 |
| 20260501205527 | 45 | 5 | 4.3 | 8.7 | 0.00 | 0.00 | 0.00 | 84 | 1015.2 |
| 20260501205027 | 45 | 5 | 4.3 | 9.6 | 0.00 | 0.00 | 0.00 | 84 | 1015.3 |
| 20260501204558 | 44 | 10 | 4.3 | 11.3 | 0.00 | 0.00 | 0.00 | 83 | 1015.2 |
| 20260501204026 | 44 | 352 | 6.1 | 11.3 | 0.00 | 0.00 | 0.00 | 84 | 1015.3 |
| 20260501203527 | 44 | 341 | 5.2 | 9.6 | 0.00 | 0.00 | 0.00 | 85 | 1015.2 |
| 20260501203045 | 44 | 360 | 6.1 | 9.6 | 0.00 | 0.00 | 0.00 | 84 | 1015.2 |
| 20260501202528 | 43 | 17 | 5.2 | 9.6 | 0.00 | 0.00 | 0.00 | 84 | 1015.1 |
| 20260501202027 | 44 | 12 | 6.1 | 9.6 | 0.00 | 0.00 | 0.00 | 86 | 1015.2 |
| 20260501201545 | 44 | 30 | 3.5 | 11.3 | 0.00 | 0.00 | 0.00 | 89 | 1015.0 |
| 20260501201027 | 43 | 35 | 6.1 | 12.2 | 0.00 | 0.00 | 0.00 | 88 | 1015.0 |
| 20260501200527 | 42 | 12 | 7.0 | 14.8 | 0.00 | 0.00 | 0.00 | 89 | 1015.1 |
| 20260501200045 | 42 | 348 | 7.8 | 14.8 | 0.00 | 0.00 | 0.00 | 89 | 1015.1 |
| 20260501195530 | 42 | 342 | 9.6 | 13.9 | 0.00 | 0.00 | 0.00 | 88 | 1015.2 |
| 20260501195027 | 42 | 331 | 7.8 | 13.9 | 0.00 | 0.00 | 0.00 | 90 | 1015.0 |
| 20260501194544 | 42 | 343 | 7.0 | 13.9 | 0.00 | 0.00 | 0.00 | 90 | 1015.0 |
| 20260501194026 | 42 | 355 | 7.0 | 13.0 | 0.00 | 0.00 | 0.00 | 90 | 1015.0 |
| 20260501193527 | 42 | 346 | 7.0 | 13.0 | 0.00 | 0.00 | 0.00 | 90 | 1015.0 |
| 20260501193047 | 42 | 355 | 7.8 | 11.3 | 0.00 | 0.00 | 0.00 | 90 | 1015.0 |
| 20260501192527 | 42 | 336 | 6.1 | 13.9 | 0.00 | 0.00 | 0.00 | 90 | 1014.9 |
| 20260501192027 | 42 | 360 | 7.8 | 13.9 | 0.00 | 0.00 | 0.00 | 90 | 1014.8 |
| 20260501191544 | 42 | 343 | 5.2 | 12.2 | 0.00 | 0.00 | 0.00 | 91 | 1014.6 |
| 20260501191027 | 42 | 360 | 7.8 | 12.2 | 0.00 | 0.00 | 0.00 | 91 | 1014.5 |
| 20260501190527 | 42 | 32 | 4.3 | 9.6 | 0.00 | 0.00 | 0.00 | 92 | 1014.5 |
| 20260501190045 | 42 | 5 | 5.2 | 12.2 | 0.00 | 0.00 | 0.00 | 91 | 1014.5 |
| 20260501185526 | 42 | 5 | 7.8 | 12.2 | 0.00 | 0.00 | 0.00 | 91 | 1014.5 |
| 20260501185027 | 42 | 360 | 6.1 | 10.4 | 0.00 | 0.00 | 0.00 | 91 | 1014.4 |
| 20260501184547 | 42 | 32 | 6.1 | 13.0 | 0.00 | 0.00 | 0.00 | 91 | 1014.3 |
| 20260501184028 | 42 | 5 | 7.0 | 13.0 | 0.00 | 0.00 | 0.00 | 91 | 1014.1 |
| 20260501183531 | 42 | 346 | 7.8 | 11.3 | 0.00 | 0.00 | 0.00 | 91 | 1014.2 |
| 20260501183050 | 41 | 5 | 5.2 | 10.4 | 0.00 | 0.00 | 0.00 | 91 | 1014.3 |
| 20260501182531 | 41 | 22 | 6.1 | 10.4 | 0.00 | 0.00 | 0.00 | 91 | 1014.2 |
| 20260501182030 | 41 | 333 | 5.2 | 10.4 | 0.00 | 0.00 | 0.00 | 91 | 1014.2 |
| 20260501181541 | 41 | 337 | 3.5 | 10.4 | 0.00 | 0.00 | 0.00 | 91 | 1014.2 |
| 20260501181027 | 41 | 347 | 6.1 | 10.4 | 0.00 | 0.00 | 0.00 | 91 | 1014.1 |
| 20260501180527 | 42 | 345 | 5.2 | 9.6 | 0.00 | 0.00 | 0.00 | 91 | 1014.0 |
| 20260501180041 | 42 | 337 | 5.2 | 9.6 | 0.00 | 0.00 | 0.00 | 91 | 1014.0 |
| 20260501175527 | 42 | 350 | 4.3 | 10.4 | 0.00 | 0.00 | 0.00 | 91 | 1014.0 |
| 20260501175027 | 42 | 343 | 5.2 | 10.4 | 0.00 | 0.00 | 0.00 | 91 | 1013.9 |
| 20260501174544 | 42 | 342 | 5.2 | 10.4 | 0.00 | 0.00 | 0.00 | 91 | 1013.9 |
| 20260501174030 | 42 | 348 | 7.8 | 10.4 | 0.00 | 0.00 | 0.00 | 91 | 1014.0 |
| 20260501173529 | 42 | 333 | 6.1 | 10.4 | 0.00 | 0.00 | 0.00 | 91 | 1013.9 |
| 20260501173047 | 42 | 338 | 5.2 | 9.6 | 0.00 | 0.00 | 0.00 | 91 | 1013.9 |